"datetime","temp","dp","rain_mm","uv","solar","mb","wind_mph","gust_mph","windchill","rh"
"2023-03-28 00:00:00",1.7,0.4,0.0,0.0,0,1023.9,0,1,"",91
"2023-03-28 00:01:00",1.7,0.4,0.0,0.0,0,1024.0,0,0,"",91
"2023-03-28 00:02:00",1.7,0.4,0.0,0.0,0,1023.9,0,1,"",91
"2023-03-28 00:03:00",1.7,0.4,0.0,0.0,0,1023.9,0,0,"",91
"2023-03-28 00:04:00",1.7,0.4,0.0,0.0,0,1023.9,0,1,"",91
"2023-03-28 00:05:00",1.7,0.4,0.0,0.0,0,1023.9,0,0,"",91
"2023-03-28 00:06:00",1.7,0.4,0.0,0.0,0,1023.9,0,1,"",91
"2023-03-28 00:07:00",1.7,0.4,0.0,0.0,0,1023.9,0,0,"",91
"2023-03-28 00:08:00",1.7,0.4,0.0,0.0,0,1023.8,0,0,"",91
"2023-03-28 00:09:00",1.7,0.4,0.0,0.0,0,1023.8,0,0,"",91
"2023-03-28 00:10:00",1.7,0.4,0.0,0.0,0,1023.8,0,1,"",91
"2023-03-28 00:11:00",1.7,0.4,0.0,0.0,0,1023.9,0,1,"",91
"2023-03-28 00:12:00",1.7,0.4,0.0,0.0,0,1023.9,1,2,"",91
"2023-03-28 00:13:00",1.8,0.5,0.0,0.0,0,1023.9,1,1,"",91
"2023-03-28 00:14:00",1.8,0.5,0.0,0.0,0,1023.9,1,1,"",91
"2023-03-28 00:15:00",1.8,0.5,0.0,0.0,0,1023.9,0,1,"",91
"2023-03-28 00:16:00",1.8,0.5,0.0,0.0,0,1023.9,0,1,"",91
"2023-03-28 00:17:00",1.8,0.5,0.0,0.0,0,1023.9,0,1,"",91
"2023-03-28 00:18:00",1.8,0.5,0.0,0.0,0,1023.8,0,1,"",91
"2023-03-28 00:19:00",1.8,0.5,0.0,0.0,0,1023.8,0,1,"",91
"2023-03-28 00:20:00",1.7,0.4,0.0,0.0,0,1023.8,0,1,"",91
"2023-03-28 00:21:00",1.7,0.4,0.0,0.0,0,1023.8,1,1,"",91
"2023-03-28 00:22:00",1.7,0.4,0.0,0.0,0,1023.8,0,1,"",91
"2023-03-28 00:23:00",1.7,0.4,0.0,0.0,0,1023.8,0,1,"",91
"2023-03-28 00:24:00",1.7,0.4,0.0,0.0,0,1023.8,0,1,"",91
"2023-03-28 00:25:00",1.7,0.4,0.0,0.0,0,1023.8,0,1,"",91
"2023-03-28 00:26:00",1.7,0.4,0.0,0.0,0,1023.8,0,1,"",91
"2023-03-28 00:27:00",1.7,0.4,0.0,0.0,0,1023.8,1,1,"",91
"2023-03-28 00:28:00",1.7,0.4,0.0,0.0,0,1023.8,0,1,"",91
"2023-03-28 00:29:00",1.8,0.5,0.0,0.0,0,1023.8,0,0,"",91
"2023-03-28 00:30:00",1.7,0.4,0.0,0.0,0,1023.8,0,1,"",91
"2023-03-28 00:31:00",1.8,0.5,0.0,0.0,0,1023.8,0,1,"",91
"2023-03-28 00:32:00",1.7,0.4,0.0,0.0,0,1023.8,0,1,"",91
"2023-03-28 00:33:00",1.7,0.4,0.0,0.0,0,1023.8,0,0,"",91
"2023-03-28 00:34:00",1.7,0.4,0.0,0.0,0,1023.8,0,0,"",91
"2023-03-28 00:35:00",1.7,0.4,0.0,0.0,0,1023.8,0,1,"",91
"2023-03-28 00:36:00",1.7,0.4,0.0,0.0,0,1023.7,0,1,"",91
"2023-03-28 00:37:00",1.6,0.3,0.0,0.0,0,1023.7,0,0,"",91
"2023-03-28 00:38:00",1.6,0.3,0.0,0.0,0,1023.7,0,1,"",91
"2023-03-28 00:39:00",1.6,0.3,0.0,0.0,0,1023.7,0,1,"",91
"2023-03-28 00:40:00",1.6,0.3,0.0,0.0,0,1023.7,1,1,"",91
"2023-03-28 00:41:00",1.7,0.4,0.0,0.0,0,1023.7,1,2,"",91
"2023-03-28 00:42:00",1.7,0.4,0.0,0.0,0,1023.7,1,2,"",91
"2023-03-28 00:43:00",1.7,0.4,0.0,0.0,0,1023.6,1,1,"",91
"2023-03-28 00:44:00",1.7,0.4,0.0,0.0,0,1023.6,0,1,"",91
"2023-03-28 00:45:00",1.7,0.4,0.0,0.0,0,1023.7,0,0,"",91
"2023-03-28 00:46:00",1.7,0.4,0.0,0.0,0,1023.6,0,0,"",91
"2023-03-28 00:47:00",1.6,0.3,0.0,0.0,0,1023.7,0,1,"",91
"2023-03-28 00:48:00",1.6,0.3,0.0,0.0,0,1023.6,0,1,"",91
"2023-03-28 00:49:00",1.5,0.2,0.0,0.0,0,1023.6,0,1,"",91
"2023-03-28 00:50:00",1.5,0.2,0.0,0.0,0,1023.6,0,1,"",91
"2023-03-28 00:51:00",1.4,0.1,0.0,0.0,0,1023.6,0,1,"",91
"2023-03-28 00:52:00",1.5,0.2,0.0,0.0,0,1023.6,0,1,"",91
"2023-03-28 00:53:00",1.5,0.2,0.0,0.0,0,1023.6,0,1,"",91
"2023-03-28 00:54:00",1.4,0.1,0.0,0.0,0,1023.6,0,0,"",91
"2023-03-28 00:55:00",1.4,0.1,0.0,0.0,0,1023.6,0,0,"",91
"2023-03-28 00:56:00",1.5,0.2,0.0,0.0,0,1023.6,0,1,"",91
"2023-03-28 00:57:00",1.5,0.2,0.0,0.0,0,1023.6,0,1,"",91
"2023-03-28 00:58:00",1.5,0.2,0.0,0.0,0,1023.6,0,1,"",91
"2023-03-28 00:59:00",1.4,0.1,0.0,0.0,0,1023.6,0,0,"",91
"2023-03-28 01:00:00",1.4,0.1,0.0,0.0,0,1023.6,0,1,"",91
"2023-03-28 01:01:00",1.4,0.1,0.0,0.0,0,1023.7,1,1,"",91
"2023-03-28 01:02:00",1.4,0.1,0.0,0.0,0,1023.6,0,0,"",91
"2023-03-28 01:03:00",1.4,0.1,0.0,0.0,0,1023.6,1,1,"",91
"2023-03-28 01:04:00",1.4,0.1,0.0,0.0,0,1023.7,0,0,"",91
"2023-03-28 01:05:00",1.4,0.1,0.0,0.0,0,1023.6,0,1,"",91
"2023-03-28 01:06:00",1.4,0.1,0.0,0.0,0,1023.6,0,1,"",91
"2023-03-28 01:07:00",1.4,0.1,0.0,0.0,0,1023.6,0,1,"",91
"2023-03-28 01:08:00",1.5,0.2,0.0,0.0,0,1023.6,0,1,"",91
"2023-03-28 01:09:00",1.5,0.2,0.0,0.0,0,1023.6,0,1,"",91
"2023-03-28 01:10:00",1.5,0.2,0.0,0.0,0,1023.6,0,1,"",91
"2023-03-28 01:11:00",1.5,0.3,0.0,0.0,0,1023.6,0,1,"",92
"2023-03-28 01:12:00",1.6,0.4,0.0,0.0,0,1023.5,0,1,"",92
"2023-03-28 01:13:00",1.6,0.4,0.0,0.0,0,1023.6,0,1,"",92
"2023-03-28 01:14:00",1.6,0.4,0.0,0.0,0,1023.6,0,1,"",92
"2023-03-28 01:15:00",1.6,0.4,0.0,0.0,0,1023.5,0,1,"",92
"2023-03-28 01:16:00",1.6,0.4,0.0,0.0,0,1023.5,0,1,"",92
"2023-03-28 01:17:00",1.6,0.4,0.0,0.0,0,1023.6,0,0,"",92
"2023-03-28 01:18:00",1.7,0.5,0.0,0.0,0,1023.5,0,1,"",92
"2023-03-28 01:19:00",1.7,0.5,0.0,0.0,0,1023.4,0,1,"",92
"2023-03-28 01:20:00",1.7,0.5,0.0,0.0,0,1023.4,0,1,"",92
"2023-03-28 01:21:00",1.7,0.5,0.0,0.0,0,1023.4,0,0,"",92
"2023-03-28 01:22:00",1.8,0.6,0.0,0.0,0,1023.4,0,1,"",92
"2023-03-28 01:23:00",1.8,0.6,0.0,0.0,0,1023.4,1,1,"",92
"2023-03-28 01:24:00",1.8,0.6,0.0,0.0,0,1023.4,0,1,"",92
"2023-03-28 01:25:00",1.8,0.6,0.0,0.0,0,1023.4,0,1,"",92
"2023-03-28 01:26:00",1.9,0.7,0.0,0.0,0,1023.4,0,2,"",92
"2023-03-28 01:27:00",1.9,0.7,0.0,0.0,0,1023.4,0,1,"",92
"2023-03-28 01:28:00",1.9,0.7,0.0,0.0,0,1023.4,0,1,"",92
"2023-03-28 01:29:00",1.9,0.6,0.0,0.0,0,1023.3,0,1,"",91
"2023-03-28 01:30:00",1.9,0.6,0.0,0.0,0,1023.3,0,0,"",91
"2023-03-28 01:31:00",1.8,0.5,0.0,0.0,0,1023.3,0,1,"",91
"2023-03-28 01:32:00",1.9,0.6,0.0,0.0,0,1023.3,0,1,"",91
"2023-03-28 01:33:00",1.9,0.7,0.0,0.0,0,1023.3,0,1,"",92
"2023-03-28 01:34:00",1.9,0.7,0.0,0.0,0,1023.3,1,1,"",92
"2023-03-28 01:35:00",1.9,0.6,0.0,0.0,0,1023.2,0,1,"",91
"2023-03-28 01:36:00",1.9,0.6,0.0,0.0,0,1023.3,0,1,"",91
"2023-03-28 01:37:00",1.9,0.6,0.0,0.0,0,1023.2,1,1,"",91
"2023-03-28 01:38:00",1.9,0.7,0.0,0.0,0,1023.2,0,1,"",92
"2023-03-28 01:39:00",1.9,0.7,0.0,0.0,0,1023.2,0,2,"",92
"2023-03-28 01:40:00",1.9,0.7,0.0,0.0,0,1023.2,1,1,"",92
"2023-03-28 01:41:00",2.0,0.8,0.0,0.0,0,1023.2,0,1,"",92
"2023-03-28 01:42:00",1.9,0.7,0.0,0.0,0,1023.2,0,1,"",92
"2023-03-28 01:43:00",2.0,0.8,0.0,0.0,0,1023.2,0,0,"",92
"2023-03-28 01:44:00",2.0,0.8,0.0,0.0,0,1023.2,0,1,"",92
"2023-03-28 01:45:00",1.9,0.7,0.0,0.0,0,1023.2,0,0,"",92
"2023-03-28 01:46:00",2.0,0.8,0.0,0.0,0,1023.2,0,1,"",92
"2023-03-28 01:47:00",2.0,0.8,0.0,0.0,0,1023.1,1,1,"",92
"2023-03-28 01:48:00",2.0,0.8,0.0,0.0,0,1023.1,1,1,"",92
"2023-03-28 01:49:00",2.1,0.9,0.0,0.0,0,1023.1,0,1,"",92
"2023-03-28 01:50:00",2.1,0.9,0.0,0.0,0,1023.1,1,1,"",92
"2023-03-28 01:51:00",2.1,0.9,0.0,0.0,0,1023.0,1,1,"",92
"2023-03-28 01:52:00",2.1,0.9,0.0,0.0,0,1023.0,0,1,"",92
"2023-03-28 01:53:00",2.1,0.9,0.0,0.0,0,1023.0,0,0,"",92
"2023-03-28 01:54:00",2.1,0.9,0.0,0.0,0,1023.0,0,1,"",92
"2023-03-28 01:55:00",2.1,0.9,0.0,0.0,0,1023.0,0,2,"",92
"2023-03-28 01:56:00",2.2,1.0,0.0,0.0,0,1023.0,1,2,"",92
"2023-03-28 01:57:00",2.1,0.9,0.0,0.0,0,1023.0,0,1,"",92
"2023-03-28 01:58:00",2.1,0.9,0.0,0.0,0,1023.0,0,1,"",92
"2023-03-28 01:59:00",2.1,0.9,0.0,0.0,0,1023.0,1,2,"",92
"2023-03-28 02:00:00",2.1,0.9,0.0,0.0,0,1022.9,0,1,"",92
"2023-03-28 02:01:00",2.1,0.9,0.0,0.0,0,1022.9,0,0,"",92
"2023-03-28 02:02:00",2.1,0.9,0.0,0.0,0,1022.9,0,0,"",92
"2023-03-28 02:03:00",2.2,1.0,0.0,0.0,0,1022.9,0,1,"",92
"2023-03-28 02:04:00",2.1,0.9,0.0,0.0,0,1022.8,0,1,"",92
"2023-03-28 02:05:00",2.1,0.9,0.0,0.0,0,1022.8,0,1,"",92
"2023-03-28 02:06:00",2.1,0.9,0.0,0.0,0,1022.8,1,2,"",92
"2023-03-28 02:07:00",2.2,1.0,0.0,0.0,0,1022.8,3,4,0.2,92
"2023-03-28 02:08:00",2.2,1.0,0.0,0.0,0,1022.8,1,2,"",92
"2023-03-28 02:09:00",2.2,1.0,0.0,0.0,0,1022.7,0,1,"",92
"2023-03-28 02:10:00",2.2,1.0,0.0,0.0,0,1022.7,0,1,"",92
"2023-03-28 02:11:00",2.2,1.0,0.0,0.0,0,1022.7,0,0,"",92
"2023-03-28 02:12:00",2.3,1.1,0.0,0.0,0,1022.7,0,1,"",92
"2023-03-28 02:13:00",2.3,1.0,0.0,0.0,0,1022.6,1,2,"",91
"2023-03-28 02:14:00",2.3,1.1,0.0,0.0,0,1022.6,0,1,"",92
"2023-03-28 02:15:00",2.3,1.1,0.0,0.0,0,1022.6,1,2,"",92
"2023-03-28 02:16:00",2.3,1.0,0.0,0.0,0,1022.6,1,2,"",91
"2023-03-28 02:17:00",2.3,1.0,0.0,0.0,0,1022.5,1,2,"",91
"2023-03-28 02:18:00",2.3,1.0,0.0,0.0,0,1022.5,1,2,"",91
"2023-03-28 02:19:00",2.3,1.1,0.0,0.0,0,1022.6,0,1,"",92
"2023-03-28 02:20:00",2.4,1.2,0.0,0.0,0,1022.5,1,1,"",92
"2023-03-28 02:21:00",2.4,1.2,0.0,0.0,0,1022.5,0,1,"",92
"2023-03-28 02:22:00",2.4,1.2,0.0,0.0,0,1022.5,0,1,"",92
"2023-03-28 02:23:00",2.3,1.1,0.0,0.0,0,1022.4,1,2,"",92
"2023-03-28 02:24:00",2.3,1.1,0.0,0.0,0,1022.4,0,1,"",92
"2023-03-28 02:25:00",2.3,1.1,0.0,0.0,0,1022.5,1,1,"",92
"2023-03-28 02:26:00",2.3,1.1,0.0,0.0,0,1022.4,1,2,"",92
"2023-03-28 02:27:00",2.3,1.1,0.0,0.0,0,1022.4,1,2,"",92
"2023-03-28 02:28:00",2.3,1.1,0.0,0.0,0,1022.4,1,2,"",92
"2023-03-28 02:29:00",2.3,1.0,0.0,0.0,0,1022.3,0,2,"",91
"2023-03-28 02:30:00",2.2,0.9,0.0,0.0,0,1022.3,0,1,"",91
"2023-03-28 02:31:00",2.2,0.9,0.0,0.0,0,1022.2,0,1,"",91
"2023-03-28 02:32:00",2.2,0.9,0.0,0.0,0,1022.3,0,1,"",91
"2023-03-28 02:33:00",2.2,1.0,0.0,0.0,0,1022.2,1,2,"",92
"2023-03-28 02:34:00",2.3,1.1,0.0,0.0,0,1022.1,1,2,"",92
"2023-03-28 02:35:00",2.3,1.1,0.0,0.0,0,1022.2,1,2,"",92
"2023-03-28 02:36:00",2.3,1.1,0.0,0.0,0,1022.2,0,2,"",92
"2023-03-28 02:37:00",2.3,1.1,0.0,0.0,0,1022.2,0,1,"",92
"2023-03-28 02:38:00",2.3,1.1,0.0,0.0,0,1022.2,1,2,"",92
"2023-03-28 02:39:00",2.3,1.1,0.0,0.0,0,1022.2,0,1,"",92
"2023-03-28 02:40:00",2.3,1.1,0.0,0.0,0,1022.2,0,1,"",92
"2023-03-28 02:41:00",2.3,1.1,0.0,0.0,0,1022.2,0,1,"",92
"2023-03-28 02:42:00",2.3,1.1,0.0,0.0,0,1022.2,0,1,"",92
"2023-03-28 02:43:00",2.3,1.1,0.0,0.0,0,1022.2,1,1,"",92
"2023-03-28 02:44:00",2.3,1.1,0.0,0.0,0,1022.2,0,1,"",92
"2023-03-28 02:45:00",2.3,1.1,0.0,0.0,0,1022.2,0,1,"",92
"2023-03-28 02:46:00",2.2,1.0,0.0,0.0,0,1022.2,1,1,"",92
"2023-03-28 02:47:00",2.3,1.1,0.0,0.0,0,1022.1,0,1,"",92
"2023-03-28 02:48:00",2.3,1.1,0.0,0.0,0,1022.1,1,1,"",92
"2023-03-28 02:49:00",2.3,1.1,0.0,0.0,0,1022.0,1,2,"",92
"2023-03-28 02:50:00",2.3,1.1,0.0,0.0,0,1022.0,0,1,"",92
"2023-03-28 02:51:00",2.3,1.1,0.0,0.0,0,1022.0,1,1,"",92
"2023-03-28 02:52:00",2.3,1.1,0.0,0.0,0,1022.0,0,1,"",92
"2023-03-28 02:53:00",2.3,1.1,0.0,0.0,0,1022.0,0,2,"",92
"2023-03-28 02:54:00",2.3,1.1,0.0,0.0,0,1022.0,1,2,"",92
"2023-03-28 02:55:00",2.3,1.1,0.0,0.0,0,1021.9,1,1,"",92
"2023-03-28 02:56:00",2.4,1.2,0.0,0.0,0,1021.9,2,3,"",92
"2023-03-28 02:57:00",2.3,1.1,0.0,0.0,0,1021.9,1,3,"",92
"2023-03-28 02:58:00",2.3,1.1,0.0,0.0,0,1021.9,1,1,"",92
"2023-03-28 02:59:00",2.3,1.1,0.0,0.0,0,1021.9,1,1,"",92
"2023-03-28 03:00:00",2.3,1.1,0.0,0.0,0,1021.9,1,2,"",92
"2023-03-28 03:01:00",2.3,1.1,0.0,0.0,0,1021.9,1,3,"",92
"2023-03-28 03:02:00",2.3,1.1,0.0,0.0,0,1021.9,1,2,"",92
"2023-03-28 03:03:00",2.3,1.1,0.0,0.0,0,1021.9,1,2,"",92
"2023-03-28 03:04:00",2.3,1.1,0.0,0.0,0,1021.9,1,3,"",92
"2023-03-28 03:05:00",2.3,1.1,0.0,0.0,0,1021.8,1,1,"",92
"2023-03-28 03:06:00",2.3,1.1,0.0,0.0,0,1021.8,1,2,"",92
"2023-03-28 03:07:00",2.4,1.2,0.0,0.0,0,1021.8,1,1,"",92
"2023-03-28 03:08:00",2.5,1.3,0.0,0.0,0,1021.7,0,1,"",92
"2023-03-28 03:09:00",2.5,1.3,0.0,0.0,0,1021.7,1,2,"",92
"2023-03-28 03:10:00",2.5,1.3,0.0,0.0,0,1021.7,1,1,"",92
"2023-03-28 03:11:00",2.6,1.4,0.0,0.0,0,1021.7,0,1,"",92
"2023-03-28 03:12:00",2.6,1.4,0.0,0.0,0,1021.7,1,1,"",92
"2023-03-28 03:13:00",2.6,1.4,0.0,0.0,0,1021.7,1,2,"",92
"2023-03-28 03:14:00",2.6,1.4,0.0,0.0,0,1021.7,2,2,"",92
"2023-03-28 03:15:00",2.6,1.4,0.0,0.0,0,1021.7,1,2,"",92
"2023-03-28 03:16:00",2.6,1.4,0.0,0.0,0,1021.7,1,1,"",92
"2023-03-28 03:17:00",2.6,1.4,0.0,0.0,0,1021.7,1,2,"",92
"2023-03-28 03:18:00",2.6,1.3,0.0,0.0,0,1021.7,1,2,"",91
"2023-03-28 03:19:00",2.6,1.4,0.0,0.0,0,1021.7,1,2,"",92
"2023-03-28 03:20:00",2.6,1.4,0.0,0.0,0,1021.8,0,1,"",92
"2023-03-28 03:21:00",2.5,1.2,0.0,0.0,0,1021.7,0,1,"",91
"2023-03-28 03:22:00",2.5,1.2,0.0,0.0,0,1021.7,1,1,"",91
"2023-03-28 03:23:00",2.5,1.3,0.0,0.0,0,1021.7,1,2,"",92
"2023-03-28 03:24:00",2.5,1.3,0.0,0.0,0,1021.6,1,2,"",92
"2023-03-28 03:25:00",2.4,1.2,0.0,0.0,0,1021.6,1,2,"",92
"2023-03-28 03:26:00",2.5,1.3,0.0,0.0,0,1021.6,1,1,"",92
"2023-03-28 03:27:00",2.6,1.4,0.0,0.0,0,1021.6,0,1,"",92
"2023-03-28 03:28:00",2.6,1.4,0.0,0.0,0,1021.6,0,1,"",92
"2023-03-28 03:29:00",2.6,1.4,0.0,0.0,0,1021.6,1,1,"",92
"2023-03-28 03:30:00",2.6,1.3,0.0,0.0,0,1021.6,1,1,"",91
"2023-03-28 03:31:00",2.6,1.3,0.0,0.0,0,1021.6,1,1,"",91
"2023-03-28 03:32:00",2.6,1.3,0.0,0.0,0,1021.6,1,2,"",91
"2023-03-28 03:33:00",2.6,1.4,0.0,0.0,0,1021.6,1,2,"",92
"2023-03-28 03:34:00",2.7,1.5,0.0,0.0,0,1021.5,0,1,"",92
"2023-03-28 03:35:00",2.6,1.4,0.0,0.0,0,1021.6,1,1,"",92
"2023-03-28 03:36:00",2.6,1.3,0.0,0.0,0,1021.5,1,1,"",91
"2023-03-28 03:37:00",2.6,1.3,0.0,0.0,0,1021.5,0,1,"",91
"2023-03-28 03:38:00",2.6,1.4,0.0,0.0,0,1021.5,1,1,"",92
"2023-03-28 03:39:00",2.6,1.4,0.0,0.0,0,1021.4,1,2,"",92
"2023-03-28 03:40:00",2.6,1.4,0.0,0.0,0,1021.4,1,1,"",92
"2023-03-28 03:41:00",2.6,1.4,0.0,0.0,0,1021.4,0,1,"",92
"2023-03-28 03:42:00",2.7,1.4,0.0,0.0,0,1021.4,1,1,"",91
"2023-03-28 03:43:00",2.7,1.5,0.0,0.0,0,1021.3,0,1,"",92
"2023-03-28 03:44:00",2.7,1.5,0.0,0.0,0,1021.3,1,2,"",92
"2023-03-28 03:45:00",2.7,1.5,0.0,0.0,0,1021.3,1,1,"",92
"2023-03-28 03:46:00",2.8,1.6,0.0,0.0,0,1021.3,1,2,"",92
"2023-03-28 03:47:00",2.8,1.5,0.0,0.0,0,1021.2,0,1,"",91
"2023-03-28 03:48:00",2.8,1.5,0.0,0.0,0,1021.2,1,2,"",91
"2023-03-28 03:49:00",2.8,1.5,0.0,0.0,0,1021.2,0,1,"",91
"2023-03-28 03:50:00",2.7,1.4,0.0,0.0,0,1021.2,0,1,"",91
"2023-03-28 03:51:00",2.8,1.6,0.0,0.0,0,1021.2,0,2,"",92
"2023-03-28 03:52:00",2.8,1.6,0.0,0.0,0,1021.2,0,1,"",92
"2023-03-28 03:53:00",2.8,1.6,0.0,0.0,0,1021.1,0,1,"",92
"2023-03-28 03:54:00",2.7,1.4,0.0,0.0,0,1021.1,1,2,"",91
"2023-03-28 03:55:00",2.7,1.4,0.0,0.0,0,1021.1,1,2,"",91
"2023-03-28 03:56:00",2.7,1.4,0.0,0.0,0,1021.0,1,2,"",91
"2023-03-28 03:57:00",2.7,1.4,0.0,0.0,0,1021.0,1,1,"",91
"2023-03-28 03:58:00",2.7,1.5,0.0,0.0,0,1021.0,1,1,"",92
"2023-03-28 03:59:00",2.8,1.6,0.0,0.0,0,1021.0,0,1,"",92
"2023-03-28 04:00:00",2.8,1.6,0.0,0.0,0,1021.0,1,2,"",92
"2023-03-28 04:01:00",2.8,1.6,0.0,0.0,0,1021.0,1,2,"",92
"2023-03-28 04:02:00",2.8,1.5,0.0,0.0,0,1021.0,1,2,"",91
"2023-03-28 04:03:00",2.8,1.5,0.0,0.0,0,1020.9,1,2,"",91
"2023-03-28 04:04:00",2.8,1.6,0.0,0.0,0,1020.9,0,1,"",92
"2023-03-28 04:05:00",2.9,1.7,0.0,0.0,0,1020.8,1,2,"",92
"2023-03-28 04:06:00",2.9,1.6,0.0,0.0,0,1020.8,1,2,"",91
"2023-03-28 04:07:00",2.9,1.6,0.0,0.0,0,1020.8,2,4,1.2,91
"2023-03-28 04:08:00",2.9,1.6,0.0,0.0,0,1020.7,2,3,"",91
"2023-03-28 04:09:00",3.0,1.7,0.0,0.0,0,1020.8,1,2,"",91
"2023-03-28 04:10:00",3.1,1.9,0.0,0.0,0,1020.7,1,2,"",92
"2023-03-28 04:11:00",3.1,1.9,0.0,0.0,0,1020.7,1,2,"",92
"2023-03-28 04:12:00",3.2,2.0,0.0,0.0,0,1020.7,0,2,"",92
"2023-03-28 04:13:00",3.2,2.0,0.0,0.0,0,1020.7,1,1,"",92
"2023-03-28 04:14:00",3.2,1.9,0.0,0.0,0,1020.7,1,2,"",91
"2023-03-28 04:15:00",3.2,1.9,0.0,0.0,0,1020.7,1,2,"",91
"2023-03-28 04:16:00",3.3,2.0,0.0,0.0,0,1020.6,1,2,"",91
"2023-03-28 04:17:00",3.3,2.0,0.0,0.0,0,1020.6,2,3,"",91
"2023-03-28 04:18:00",3.4,2.1,0.0,0.0,0,1020.6,1,2,"",91
"2023-03-28 04:19:00",3.4,2.1,0.0,0.0,0,1020.6,1,2,"",91
"2023-03-28 04:20:00",3.4,2.1,0.0,0.0,0,1020.6,1,2,"",91
"2023-03-28 04:21:00",3.5,2.2,0.0,0.0,0,1020.6,1,2,"",91
"2023-03-28 04:22:00",3.6,2.3,0.0,0.0,0,1020.6,2,3,"",91
"2023-03-28 04:23:00",3.7,2.4,0.0,0.0,0,1020.6,1,2,"",91
"2023-03-28 04:24:00",3.8,2.5,0.0,0.0,0,1020.5,1,2,"",91
"2023-03-28 04:25:00",3.8,2.5,0.0,0.0,0,1020.5,2,6,1.3,91
"2023-03-28 04:26:00",3.9,2.4,0.0,0.0,0,1020.4,1,3,"",90
"2023-03-28 04:27:00",3.9,2.4,0.0,0.0,0,1020.4,2,3,"",90
"2023-03-28 04:28:00",3.9,2.4,0.0,0.0,0,1020.4,2,3,"",90
"2023-03-28 04:29:00",3.9,2.4,0.0,0.0,0,1020.4,1,2,"",90
"2023-03-28 04:30:00",4.1,2.6,0.0,0.0,0,1020.3,1,3,"",90
"2023-03-28 04:31:00",4.1,2.6,0.0,0.0,0,1020.3,0,2,"",90
"2023-03-28 04:32:00",4.1,2.4,0.0,0.0,0,1020.3,0,2,"",89
"2023-03-28 04:33:00",4.1,2.4,0.0,0.0,0,1020.3,1,2,"",89
"2023-03-28 04:34:00",4.1,2.4,0.0,0.0,0,1020.3,1,2,"",89
"2023-03-28 04:35:00",4.1,2.4,0.0,0.0,0,1020.2,1,3,"",89
"2023-03-28 04:36:00",4.2,2.5,0.0,0.0,0,1020.3,0,1,"",89
"2023-03-28 04:37:00",4.2,2.5,0.0,0.0,0,1020.3,1,2,"",89
"2023-03-28 04:38:00",4.2,2.5,0.0,0.0,0,1020.3,1,1,"",89
"2023-03-28 04:39:00",4.2,2.5,0.0,0.0,0,1020.3,1,2,"",89
"2023-03-28 04:40:00",4.2,2.5,0.0,0.0,0,1020.3,2,3,"",89
"2023-03-28 04:41:00",4.2,2.5,0.0,0.0,0,1020.2,2,3,"",89
"2023-03-28 04:42:00",4.2,2.5,0.0,0.0,0,1020.3,1,2,"",89
"2023-03-28 04:43:00",4.3,2.6,0.0,0.0,0,1020.2,1,2,"",89
"2023-03-28 04:44:00",4.4,2.7,0.0,0.0,0,1020.3,1,2,"",89
"2023-03-28 04:45:00",4.4,2.7,0.0,0.0,0,1020.3,1,1,"",89
"2023-03-28 04:46:00",4.4,2.6,0.0,0.0,0,1020.3,0,1,"",88
"2023-03-28 04:47:00",4.4,2.7,0.0,0.0,0,1020.3,1,2,"",89
"2023-03-28 04:48:00",4.4,2.7,0.0,0.0,0,1020.3,2,3,"",89
"2023-03-28 04:49:00",4.5,2.8,0.0,0.0,0,1020.2,1,2,"",89
"2023-03-28 04:50:00",4.6,2.9,0.0,0.0,0,1020.2,1,3,"",89
"2023-03-28 04:51:00",4.7,3.0,0.0,0.0,0,1020.2,1,2,"",89
"2023-03-28 04:52:00",4.7,2.9,0.0,0.0,0,1020.2,0,2,"",88
"2023-03-28 04:53:00",4.7,2.9,0.0,0.0,0,1020.1,1,2,"",88
"2023-03-28 04:54:00",4.7,2.9,0.0,0.0,0,1020.1,1,2,"",88
"2023-03-28 04:55:00",4.8,3.0,0.0,0.0,0,1020.1,1,2,"",88
"2023-03-28 04:56:00",4.9,3.1,0.0,0.0,0,1020.2,2,6,2.6,88
"2023-03-28 04:57:00",4.9,3.1,0.0,0.0,0,1020.2,2,4,3.5,88
"2023-03-28 04:58:00",5.1,3.3,0.0,0.0,0,1020.2,1,2,"",88
"2023-03-28 04:59:00",5.1,3.1,0.0,0.0,0,1020.1,1,4,3.7,87
"2023-03-28 05:00:00",5.2,3.2,0.0,0.0,0,1020.1,2,4,3.8,87
"2023-03-28 05:01:00",5.3,3.3,0.0,0.0,0,1020.1,2,3,"",87
"2023-03-28 05:02:00",5.4,3.2,0.0,0.0,0,1020.1,1,3,"",86
"2023-03-28 05:03:00",5.6,3.4,0.0,0.0,0,1020.1,1,1,"",86
"2023-03-28 05:04:00",5.6,3.4,0.0,0.0,0,1020.1,0,1,"",86
"2023-03-28 05:05:00",5.4,3.2,0.0,0.0,0,1020.1,0,1,"",86
"2023-03-28 05:06:00",5.4,3.2,0.0,0.0,0,1020.1,1,2,"",86
"2023-03-28 05:07:00",5.4,3.2,0.0,0.0,0,1020.1,1,3,"",86
"2023-03-28 05:08:00",5.6,3.4,0.0,0.0,0,1020.0,2,5,3.7,86
"2023-03-28 05:09:00",5.6,3.4,0.0,0.0,0,1020.0,1,2,"",86
"2023-03-28 05:10:00",5.8,3.6,0.0,0.0,0,1020.0,1,2,"",86
"2023-03-28 05:11:00",5.8,3.5,0.0,0.0,0,1020.0,2,3,"",85
"2023-03-28 05:12:00",5.9,3.6,0.0,0.0,0,1020.0,1,2,"",85
"2023-03-28 05:13:00",5.9,3.6,0.0,0.0,0,1020.0,1,2,"",85
"2023-03-28 05:14:00",5.9,3.6,0.0,0.0,0,1020.0,1,2,"",85
"2023-03-28 05:15:00",5.9,3.6,0.0,0.0,0,1020.0,1,2,"",85
"2023-03-28 05:16:00",5.9,3.6,0.0,0.0,0,1020.0,1,2,"",85
"2023-03-28 05:17:00",5.9,3.6,0.0,0.0,0,1019.9,1,1,"",85
"2023-03-28 05:18:00",5.9,3.6,0.0,0.0,0,1019.9,0,1,"",85
"2023-03-28 05:19:00",5.8,3.6,0.0,0.0,0,1019.9,0,1,"",86
"2023-03-28 05:20:00",5.8,3.6,0.0,0.0,0,1019.9,1,2,"",86
"2023-03-28 05:21:00",5.7,3.5,0.0,0.0,0,1019.9,2,2,"",86
"2023-03-28 05:22:00",5.8,3.6,0.0,0.0,0,1019.9,4,7,3.2,86
"2023-03-28 05:23:00",5.8,3.6,0.0,0.0,0,1020.0,4,8,3.1,86
"2023-03-28 05:24:00",5.9,3.7,0.0,0.0,0,1019.9,3,5,4.2,86
"2023-03-28 05:25:00",6.1,3.9,0.0,0.0,0,1020.0,3,10,2.9,86
"2023-03-28 05:26:00",6.1,3.9,0.0,0.0,0,1019.9,6,9,3.2,86
"2023-03-28 05:27:00",6.2,4.0,0.0,0.0,0,1020.0,2,5,4.4,86
"2023-03-28 05:28:00",6.3,4.1,0.0,0.0,0,1019.9,4,6,4.3,86
"2023-03-28 05:29:00",6.4,4.4,0.0,0.0,0,1020.0,2,4,5.1,87
"2023-03-28 05:30:00",6.4,4.4,0.0,0.0,0,1020.0,1,2,"",87
"2023-03-28 05:31:00",6.4,4.4,0.0,0.0,0,1019.9,1,2,"",87
"2023-03-28 05:32:00",6.5,4.5,0.0,0.0,0,1019.9,1,2,"",87
"2023-03-28 05:33:00",6.5,4.5,0.0,0.0,0,1019.9,2,4,5.3,87
"2023-03-28 05:34:00",6.5,4.5,0.0,0.0,0,1019.9,3,5,4.9,87
"2023-03-28 05:35:00",6.5,4.5,0.0,0.0,0,1019.9,1,2,"",87
"2023-03-28 05:36:00",6.5,4.5,0.0,0.0,0,1019.8,2,2,"",87
"2023-03-28 05:37:00",6.5,4.5,0.0,0.0,0,1019.9,1,3,"",87
"2023-03-28 05:38:00",6.4,4.4,0.0,0.0,0,1019.8,2,3,"",87
"2023-03-28 05:39:00",6.4,4.4,0.0,0.0,0,1019.8,1,2,"",87
"2023-03-28 05:40:00",6.4,4.6,0.0,0.0,0,1019.8,1,2,"",88
"2023-03-28 05:41:00",6.3,4.5,0.0,0.0,0,1019.8,1,2,"",88
"2023-03-28 05:42:00",6.3,4.5,0.0,0.0,0,1019.7,1,2,"",88
"2023-03-28 05:43:00",6.3,4.5,0.0,0.0,0,1019.8,2,2,"",88
"2023-03-28 05:44:00",6.3,4.6,0.0,0.0,0,1019.8,1,2,"",89
"2023-03-28 05:45:00",6.3,4.6,0.0,0.0,0,1019.8,2,3,"",89
"2023-03-28 05:46:00",6.2,4.5,0.0,0.0,0,1019.7,1,2,"",89
"2023-03-28 05:47:00",6.2,4.5,0.0,0.0,0,1019.8,1,2,"",89
"2023-03-28 05:48:00",6.3,4.6,0.0,0.0,0,1019.8,2,3,"",89
"2023-03-28 05:49:00",6.3,4.6,0.0,0.0,0,1019.7,1,3,"",89
"2023-03-28 05:50:00",6.3,4.6,0.0,0.0,0,1019.7,2,4,5.1,89
"2023-03-28 05:51:00",6.3,4.6,0.0,0.0,0,1019.8,1,2,"",89
"2023-03-28 05:52:00",6.3,4.6,0.0,0.0,0,1019.7,1,1,"",89
"2023-03-28 05:53:00",6.3,4.6,0.0,0.0,0,1019.7,1,1,"",89
"2023-03-28 05:54:00",6.3,4.8,0.0,0.0,0,1019.8,1,2,"",90
"2023-03-28 05:55:00",6.3,4.6,0.0,0.0,0,1019.7,1,2,"",89
"2023-03-28 05:56:00",6.3,4.8,0.0,0.0,0,1019.8,1,2,"",90
"2023-03-28 05:57:00",6.2,4.7,0.0,0.0,0,1019.7,1,3,"",90
"2023-03-28 05:58:00",6.2,4.7,0.0,0.0,0,1019.8,2,3,"",90
"2023-03-28 05:59:00",6.3,4.8,0.0,0.0,0,1019.8,1,2,"",90
"2023-03-28 06:00:00",6.3,4.8,0.0,0.0,0,1019.7,0,1,"",90
"2023-03-28 06:01:00",6.3,4.8,0.0,0.0,0,1019.8,1,1,"",90
"2023-03-28 06:02:00",6.3,4.8,0.0,0.0,0,1019.8,1,2,"",90
"2023-03-28 06:03:00",6.3,4.8,0.0,0.0,0,1019.8,1,2,"",90
"2023-03-28 06:04:00",6.2,4.7,0.0,0.0,0,1019.7,2,3,"",90
"2023-03-28 06:05:00",6.2,4.7,0.0,0.0,0,1019.7,1,2,"",90
"2023-03-28 06:06:00",6.2,4.7,0.0,0.0,0,1019.8,0,2,"",90
"2023-03-28 06:07:00",6.2,4.7,0.0,0.0,0,1019.7,2,4,5.1,90
"2023-03-28 06:08:00",6.2,4.8,0.0,0.0,0,1019.7,1,2,"",91
"2023-03-28 06:09:00",6.2,4.8,0.0,0.0,0,1019.7,1,2,"",91
"2023-03-28 06:10:00",6.2,4.8,0.0,0.0,0,1019.6,1,2,"",91
"2023-03-28 06:11:00",6.2,4.8,0.0,0.0,0,1019.6,1,2,"",91
"2023-03-28 06:12:00",6.2,4.8,0.0,0.0,0,1019.6,1,2,"",91
"2023-03-28 06:13:00",6.2,4.8,0.0,0.0,0,1019.6,1,1,"",91
"2023-03-28 06:14:00",6.2,4.8,0.0,0.0,0,1019.6,0,1,"",91
"2023-03-28 06:15:00",6.2,4.8,0.0,0.0,0,1019.6,0,2,"",91
"2023-03-28 06:16:00",6.2,4.8,0.2,0.0,0,1019.6,1,3,"",91
"2023-03-28 06:17:00",6.2,4.8,0.2,0.0,0,1019.6,0,1,"",91
"2023-03-28 06:18:00",6.2,4.8,0.2,0.0,0,1019.6,0,1,"",91
"2023-03-28 06:19:00",6.2,4.8,0.2,0.0,0,1019.6,1,3,"",91
"2023-03-28 06:20:00",6.3,4.9,0.2,0.0,0,1019.6,2,4,5.0,91
"2023-03-28 06:21:00",6.3,4.9,0.2,0.0,0,1019.6,1,3,"",91
"2023-03-28 06:22:00",6.3,4.9,0.2,0.0,0,1019.6,0,1,"",91
"2023-03-28 06:23:00",6.3,4.9,0.2,0.0,0,1019.6,1,1,"",91
"2023-03-28 06:24:00",6.3,4.9,0.2,0.0,0,1019.5,0,2,"",91
"2023-03-28 06:25:00",6.3,4.9,0.2,0.0,0,1019.5,2,4,5.1,91
"2023-03-28 06:26:00",6.3,4.9,0.2,0.0,0,1019.5,2,3,"",91
"2023-03-28 06:27:00",6.4,5.0,0.2,0.0,0,1019.5,1,2,"",91
"2023-03-28 06:28:00",6.4,5.0,0.2,0.0,0,1019.5,1,2,"",91
"2023-03-28 06:29:00",6.4,5.0,0.2,0.0,0,1019.5,0,2,"",91
"2023-03-28 06:30:00",6.4,5.0,0.2,0.0,0,1019.6,0,1,"",91
"2023-03-28 06:31:00",6.4,5.0,0.2,0.0,0,1019.6,1,2,"",91
"2023-03-28 06:32:00",6.4,5.2,0.2,0.0,0,1019.6,1,2,"",92
"2023-03-28 06:33:00",6.4,5.2,0.2,0.0,0,1019.6,1,2,"",92
"2023-03-28 06:34:00",6.4,5.2,0.2,0.0,0,1019.6,1,2,"",92
"2023-03-28 06:35:00",6.4,5.2,0.2,0.0,0,1019.6,0,1,"",92
"2023-03-28 06:36:00",6.4,5.2,0.2,0.0,0,1019.6,0,1,"",92
"2023-03-28 06:37:00",6.4,5.0,0.2,0.0,0,1019.6,1,2,"",91
"2023-03-28 06:38:00",6.4,5.0,0.2,0.0,0,1019.6,1,2,"",91
"2023-03-28 06:39:00",6.4,5.2,0.2,0.0,0,1019.6,1,2,"",92
"2023-03-28 06:40:00",6.4,5.2,0.2,0.0,0,1019.6,1,2,"",92
"2023-03-28 06:41:00",6.4,5.2,0.2,0.0,0,1019.6,0,1,"",92
"2023-03-28 06:42:00",6.5,5.3,0.2,0.0,0,1019.6,0,1,"",92
"2023-03-28 06:43:00",6.5,5.3,0.2,0.0,0,1019.6,1,2,"",92
"2023-03-28 06:44:00",6.5,5.3,0.2,0.0,0,1019.5,0,1,"",92
"2023-03-28 06:45:00",6.5,5.3,0.2,0.0,0,1019.5,0,2,"",92
"2023-03-28 06:46:00",6.6,5.4,0.2,0.0,0,1019.5,1,1,"",92
"2023-03-28 06:47:00",6.6,5.4,0.2,0.0,0,1019.5,0,1,"",92
"2023-03-28 06:48:00",6.6,5.4,0.2,0.0,0,1019.5,0,1,"",92
"2023-03-28 06:49:00",6.6,5.4,0.2,0.0,0,1019.5,1,1,"",92
"2023-03-28 06:50:00",6.6,5.4,0.2,0.0,0,1019.5,1,2,"",92
"2023-03-28 06:51:00",6.6,5.4,0.2,0.0,0,1019.5,1,2,"",92
"2023-03-28 06:52:00",6.5,5.3,0.2,0.0,0,1019.5,1,2,"",92
"2023-03-28 06:53:00",6.6,5.4,0.2,0.0,0,1019.5,1,1,"",92
"2023-03-28 06:54:00",6.6,5.4,0.2,0.0,0,1019.5,0,1,"",92
"2023-03-28 06:55:00",6.6,5.4,0.2,0.0,0,1019.4,0,1,"",92
"2023-03-28 06:56:00",6.6,5.4,0.2,0.0,0,1019.5,1,2,"",92
"2023-03-28 06:57:00",6.6,5.4,0.2,0.0,0,1019.5,1,1,"",92
"2023-03-28 06:58:00",6.7,5.5,0.2,0.0,0,1019.5,1,2,"",92